Amateur Radio Satellites - All Passes

Search period start: 25 May 2013 19:08
Search period end: 26 May 2013 19:08
Location: Star Hoppers Observatory, 42.7905°N, 83.6127°W

Satellite Date Start Highest point End Downlink Frequencies (MHz)
Time Altitude Azimuth
UOSAT-12 25 May 19:15:23 19:19:11 25° 43° (NE) 19:22:58 437.025 FM, 437.400 FM
JAS-1B 25 May 19:33:35 19:41:53 46° 67° (ENE) 19:48:58 435.800 - 435.900 CW/SSB
AO-7 25 May 19:53:32 19:56:53 13° 274° (W) 20:00:16 29.400 - 29.500 MHz
Hamsat 25 May 19:57:42 20:01:54 75° 258° (WSW) 20:06:11 145.90 MHz
RS-15 25 May 20:12:11 20:22:01 29° 336° (NNW) 20:31:32 29.354 - 29.394 USB, Beacon 29.352 USB
SO-67 25 May 20:16:30 20:20:00 56° 75° (ENE) 20:23:31 435.3500 MHz FM
HO-68 25 May 20:22:36 20:27:18 19° 53° (NE) 20:32:00 435.675 MHz FM
STRAND 1 25 May 20:28:06 20:33:12 65° 287° (WNW) 20:38:18 ?
JAS-2 25 May 20:33:12 20:37:56 18° 54° (NE) 20:42:36 435.800 - 435.900 CW/SSB, 435.910 FM
UOSAT-12 25 May 20:55:09 20:59:35 48° 242° (WSW) 21:03:59 437.025 FM, 437.400 FM
JAS-1B 25 May 21:23:53 21:32:24 44° 262° (W) 21:39:44 435.800 - 435.900 CW/SSB
Oscar 11 25 May 22:04:09 22:08:11 40° 71° (ENE) 22:12:15 145.825 FM, Beacon 2401.500 USB
HO-68 25 May 22:06:54 22:14:03 88° 73° (ENE) 22:21:14 435.675 MHz FM
JAS-2 25 May 22:13:57 22:21:43 74° 72° (ENE) 22:29:28 435.800 - 435.900 CW/SSB, 435.910 FM
RS-15 25 May 22:30:32 22:39:26 25° 12° (NNE) 22:48:04 29.354 - 29.394 USB, Beacon 29.352 USB
OPAL 25 May 22:46:44 22:51:52 64° 70° (ENE) 22:56:57 ?
KITSAT 1 25 May 22:53:18 23:01:00 52° 113° (ESE) 23:08:45 435.175 FM
Oscar 11 25 May 23:41:32 23:44:35 19° 267° (W) 23:47:40 145.825 FM, Beacon 2401.500 USB
HO-68 25 May 23:58:20 00:02:37 17° 271° (W) 00:06:55 435.675 MHz FM
JAS-2 26 May 00:01:08 00:07:16 25° 270° (W) 00:13:27 435.800 - 435.900 CW/SSB, 435.910 FM
OPAL 26 May 00:27:57 00:31:10 16° 267° (W) 00:34:22 ?
RS-15 26 May 00:44:23 00:55:17 52° 44° (NE) 01:05:49 29.354 - 29.394 USB, Beacon 29.352 USB
KITSAT 1 26 May 00:49:00 00:56:34 42° 314° (NW) 01:04:13 435.175 FM
MaSat-1 26 May 01:20:20 01:26:38 38° 109° (ESE) 01:31:56 437.345 MHz
AO-40 26 May 02:01:51 03:39:47 36° 222° (SW) 08:19:43 Beacon 2401.320
Oscar 19 26 May 02:28:39 02:32:25 20° 92° (E) 02:36:08 437.125 CW, 437.150 USB
ISS 26 May 02:28:41 02:31:55 57° 142° (SE) 02:35:11 145.800 FM
Uribyol 2 26 May 02:32:28 02:36:10 19° 92° (E) 02:39:50 436.500 FM
KITSAT 1 26 May 02:49:49 02:54:32 16° 341° (NNW) 02:59:16 435.175 FM
RS-15 26 May 02:57:10 03:07:39 51° 248° (WSW) 03:17:55 29.354 - 29.394 USB, Beacon 29.352 USB
MaSat-1 26 May 03:02:25 03:08:45 41° 302° (WNW) 03:13:55 437.345 MHz
Oscar 16 26 May 03:07:44 03:12:50 54° 100° (E) 03:17:51 437.025 USB, Beacon 2401.1428
AO-27 26 May 03:24:50 03:30:00 57° 101° (E) 03:35:08 436.795 MHz FM
ITAMSAT 1 26 May 03:30:34 03:35:46 63° 102° (ESE) 03:40:57 435.822 SSB
Uosat F 26 May 03:41:54 03:43:13 11° 88° (E) 03:44:33 435.120 FM
AO-Echo 26 May 03:43:30 03:47:39 28° 96° (E) 03:51:51 ?
ISS 26 May 04:05:54 04:08:49 28° 340° (NNW) 04:11:45 145.800 FM
Oscar 19 26 May 04:07:04 04:12:04 51° 289° (WNW) 04:17:01 437.125 CW, 437.150 USB
Gurwin Techsat 1B 26 May 04:09:49 04:13:35 19° 92° (E) 04:17:20 435.225 FM
Uribyol 2 26 May 04:10:53 04:16:00 55° 289° (WNW) 04:21:05 436.500 FM
Saudisat 1A 26 May 04:37:02 04:39:40 15° 109° (ESE) 04:42:19 436.775 MHz
Oscar 16 26 May 04:48:03 04:51:47 21° 298° (WNW) 04:55:31 437.025 USB, Beacon 2401.1428
KITSAT 1 26 May 04:50:04 04:54:04 14° 12° (NNE) 04:58:05 435.175 FM
AO-27 26 May 05:05:21 05:09:06 20° 298° (WNW) 05:12:50 436.795 MHz FM
ITAMSAT 1 26 May 05:11:16 05:14:47 19° 299° (WNW) 05:18:18 435.822 SSB
Uosat F 26 May 05:17:37 05:22:41 86° 286° (WNW) 05:27:43 435.120 FM
AO-Echo 26 May 05:22:13 05:26:27 32° 292° (WNW) 05:30:45 ?
TMSAT-1 26 May 05:24:35 05:29:52 62° 101° (E) 05:35:06 436.925 FM
ISS 26 May 05:43:57 05:46:18 18° 1° (N) 05:48:40 145.800 FM
Gurwin Techsat 1B 26 May 05:48:43 05:53:55 56° 288° (WNW) 05:59:05 435.225 FM
AO-7 26 May 05:55:14 06:02:57 39° 98° (E) 06:10:37 29.400 - 29.500 MHz
PCSat 26 May 06:05:36 06:07:37 12° 102° (ESE) 06:09:37 145.825 MHz
STRAND 1 26 May 06:07:02 06:11:11 26° 65° (ENE) 06:15:22 ?
Oscar 10/S400 26 May 06:11:51 09:31:31 58° 234° (SW) 16:30:12 145.825 - 145.975 CW/USB, Beacon 145.810 USB
Saudisat 1A 26 May 06:14:18 06:18:50 65° 306° (NW) 06:23:27 436.775 MHz
Sapphire 26 May 06:36:18 06:40:25 23° 107° (ESE) 06:44:34 437.095 MHz 1200 baud AX-25 AFSK
KITSAT 1 26 May 06:45:24 06:52:34 33° 41° (NE) 06:59:41 435.175 FM
Uosat F 26 May 06:58:53 07:00:43 12° 303° (WNW) 07:02:32 435.120 FM
TMSAT-1 26 May 07:05:40 07:09:18 19° 299° (WNW) 07:12:55 436.925 FM
ISS 26 May 07:20:47 07:23:47 30° 21° (NNE) 07:26:47 145.800 FM
Hamsat 26 May 07:44:14 07:47:25 19° 93° (E) 07:50:35 145.90 MHz
PCSat 26 May 07:44:47 07:50:12 89° 120° (ESE) 07:55:40 145.825 MHz
STRAND 1 26 May 07:45:25 07:50:11 40° 262° (W) 07:55:00 ?
AO-7 26 May 07:47:55 07:55:53 51° 297° (WNW) 08:03:49 29.400 - 29.500 MHz
Saudisat 1A 26 May 07:57:20 07:59:27 13° 327° (NNW) 08:01:34 436.775 MHz
Sapphire 26 May 08:18:11 08:23:28 54° 305° (NW) 08:28:47 437.095 MHz 1200 baud AX-25 AFSK
SO-50 26 May 08:28:16 08:32:54 50° 118° (ESE) 08:37:29 436.795 FM
KITSAT 1 26 May 08:40:34 08:48:41 73° 243° (WSW) 08:56:44 435.175 FM
ISS 26 May 08:57:22 09:00:38 50° 219° (SW) 09:03:53 145.800 FM
JAS-1B 26 May 09:08:52 09:14:40 54° 100° (E) 09:20:11 435.800 - 435.900 CW/SSB
SO-67 26 May 09:15:49 09:19:24 68° 101° (E) 09:22:58 435.3500 MHz FM
Hamsat 26 May 09:19:33 09:23:38 40° 289° (WNW) 09:27:44 145.90 MHz
PCSat 26 May 09:30:43 09:34:23 18° 320° (NW) 09:38:05 145.825 MHz
HO-68 26 May 09:35:54 09:39:47 15° 88° (E) 09:43:39 435.675 MHz FM
AO-7 26 May 09:43:39 09:46:42 13° 319° (NW) 09:49:46 29.400 - 29.500 MHz
Sapphire 26 May 10:06:07 10:08:11 12° 327° (NNW) 10:10:15 437.095 MHz 1200 baud AX-25 AFSK
SO-50 26 May 10:09:50 10:13:47 25° 317° (NW) 10:17:41 436.795 FM
KITSAT 1 26 May 10:38:57 10:42:39 14° 261° (W) 10:46:21 435.175 FM
OPAL 26 May 10:57:41 11:00:23 15° 92° (E) 11:03:04 ?
JAS-1B 26 May 11:00:31 11:04:54 22° 301° (WNW) 11:09:06 435.800 - 435.900 CW/SSB
UOSAT-12 26 May 11:07:19 11:11:32 41° 117° (ESE) 11:15:49 437.025 FM, 437.400 FM
JAS-2 26 May 11:09:13 11:15:53 59° 99° (E) 11:21:42 435.800 - 435.900 CW/SSB, 435.910 FM
HO-68 26 May 11:21:13 11:28:26 85° 106° (ESE) 11:35:37 435.675 MHz FM
Oscar 11 26 May 11:27:06 11:31:29 74° 102° (ESE) 11:35:51 145.825 FM, Beacon 2401.500 USB
MaSat-1 26 May 11:46:40 11:49:45 48° 248° (WSW) 11:52:20 437.345 MHz
OPAL 26 May 12:34:48 12:39:46 67° 289° (WNW) 12:44:40 ?
UOSAT-12 26 May 12:48:00 12:51:51 27° 316° (NW) 12:55:44 437.025 FM, 437.400 FM
Oscar 16 26 May 12:50:09 12:52:09 12° 57° (ENE) 12:54:08 437.025 USB, Beacon 2401.1428
JAS-2 26 May 12:55:01 13:00:21 25° 301° (WNW) 13:05:12 435.800 - 435.900 CW/SSB, 435.910 FM
Saudisat 1A 26 May 13:02:06 13:05:29 20° 40° (NE) 13:08:50 436.775 MHz
Oscar 11 26 May 13:05:29 13:07:07 12° 299° (WNW) 13:08:44 145.825 FM, Beacon 2401.500 USB
AO-27 26 May 13:07:59 13:10:20 13° 58° (ENE) 13:12:41 436.795 MHz FM
HO-68 26 May 13:10:17 13:15:17 21° 306° (NW) 13:20:17 435.675 MHz FM
ITAMSAT 1 26 May 13:13:13 13:15:55 14° 59° (ENE) 13:18:37 435.822 SSB
Oscar 19 26 May 13:46:09 13:50:43 32° 67° (ENE) 13:55:18 437.125 CW, 437.150 USB
Uribyol 2 26 May 13:51:02 13:55:34 32° 66° (ENE) 14:00:08 436.500 FM
Oscar 16 26 May 14:25:30 14:30:42 84° 75° (ENE) 14:35:56 437.025 USB, Beacon 2401.1428
Saudisat 1A 26 May 14:41:06 14:45:37 63° 240° (WSW) 14:50:01 436.775 MHz
AO-27 26 May 14:43:55 14:49:06 89° 255° (WSW) 14:54:20 436.795 MHz FM
ITAMSAT 1 26 May 14:49:33 14:54:44 82° 256° (WSW) 14:59:57 435.822 SSB
PCSat 26 May 14:49:48 14:53:16 17° 39° (NE) 14:56:44 145.825 MHz
Uosat F 26 May 14:55:08 14:58:32 19° 62° (ENE) 15:01:55 435.120 FM
AO-Echo 26 May 14:57:32 15:02:00 40° 70° (ENE) 15:06:24 ?
AO-7 26 May 15:08:05 15:11:54 14° 43° (NE) 15:15:43 29.400 - 29.500 MHz
TMSAT-1 26 May 15:09:28 15:12:20 15° 59° (ENE) 15:15:12 436.925 FM
RS-15 26 May 15:10:39 15:19:54 27° 102° (ESE) 15:28:51 29.354 - 29.394 USB, Beacon 29.352 USB
SO-50 26 May 15:21:06 15:22:34 11° 31° (NNE) 15:24:01 436.795 FM
Sapphire 26 May 15:22:27 15:26:57 26° 46° (NE) 15:31:25 437.095 MHz 1200 baud AX-25 AFSK
Oscar 19 26 May 15:25:22 15:30:01 33° 264° (W) 15:34:43 437.125 CW, 437.150 USB
Uribyol 2 26 May 15:30:19 15:34:59 34° 263° (W) 15:39:42 436.500 FM
Gurwin Techsat 1B 26 May 15:31:31 15:36:13 33° 67° (ENE) 15:40:55 435.225 FM
Oscar 16 26 May 16:08:49 16:10:43 12° 272° (W) 16:12:37 437.025 USB, Beacon 2401.1428
AO-27 26 May 16:28:15 16:29:21 11° 273° (W) 16:30:27 436.795 MHz FM
Uosat F 26 May 16:31:58 16:36:53 58° 259° (W) 16:41:50 435.120 FM
PCSat 26 May 16:32:05 16:37:34 83° 60° (ENE) 16:42:59 145.825 MHz
AO-Echo 26 May 16:37:13 16:40:56 22° 266° (W) 16:44:38 ?
TMSAT-1 26 May 16:46:17 16:51:35 81° 257° (WSW) 16:56:55 436.925 FM
AO-7 26 May 16:54:53 17:02:54 57° 64° (ENE) 17:10:59 29.400 - 29.500 MHz
SO-50 26 May 16:59:44 17:04:14 55° 52° (NE) 17:08:38 436.795 FM
Sapphire 26 May 17:05:24 17:10:43 56° 245° (WSW) 17:16:00 437.095 MHz 1200 baud AX-25 AFSK
Gurwin Techsat 1B 26 May 17:11:24 17:16:09 33° 264° (W) 17:20:56 435.225 FM
RS-15 26 May 17:18:55 17:31:01 86° 303° (WNW) 17:42:36 29.354 - 29.394 USB, Beacon 29.352 USB
UOSAT-12 26 May 17:58:41 17:59:11 10° 30° (NNE) 17:59:41 437.025 FM, 437.400 FM
JAS-1B 26 May 18:08:23 18:11:29 13° 52° (NE) 18:14:25 435.800 - 435.900 CW/SSB
PCSat 26 May 18:17:36 18:20:14 14° 257° (WSW) 18:22:51 145.825 MHz
Hamsat 26 May 18:40:00 18:42:38 16° 64° (ENE) 18:45:16 145.90 MHz
SO-50 26 May 18:41:27 18:44:24 17° 250° (WSW) 18:47:18 436.795 FM
AO-7 26 May 18:48:42 18:56:00 34° 263° (W) 19:03:24 29.400 - 29.500 MHz

Developed and maintained by Chris Peat, Heavens-Above GmbH. Please read the updated FAQ before sending e-mail. Imprint. DLR
